Theta_e
305 306 307 307 308 309 310 310 309 307 306 304 304 303 303 303 302 303 304 302 303 303 303 303 303 303 303 304 304 304 299 300 303 302 303 302 302 303 303 303 303 303 303 303 303
306 307 308 310 311 313 313 313 313 309 307 305 304 304 303 303 303 303 305 302 303 303 303 304 303 304 305 304 304 300 299 301 302 301 301 301 302 303 302 302 302 303 303 303 303
307 308 309 311 313 314 315 315 314 313 311 306 304 303 303 303 303 307 304 303 303 303 302 304 304 305 305 304 304 302 301 302 302 303 302 302 301 302 300 299 302 302 303 303 303
306 307 309 310 312 313 314 314 314 311 311 308 305 303 302 302 307 306 304 303 303 302 302 303 304 304 304 303 304 303 302 302 303 304 302 300 301 300 301 301 303 302 302 302 302
307 307 309 311 312 313 314 314 314 312 309 308 305 303 302 303 304 304 304 302 302 302 302 303 303 304 304 303 303 302 302 302 302 302 301 301 300 300 301 303 302 302 302 302 301
309 308 308 311 314 315 315 313 312 311 309 307 304 302 302 302 304 303 302 301 302 302 302 302 303 303 303 302 301 302 302 302 303 303 302 300 300 300 302 304 303 301 301 301 300
315 312 310 309 313 315 315 314 313 311 308 305 303 301 302 303 303 303 302 301 301 302 302 301 301 301 302 302 302 302 301 301 301 301 301 301 301 298 302 302 301 302 301 301 300
314 315 314 312 310 314 315 314 314 312 307 304 302 301 302 302 302 302 301 301 301 301 301 301 301 301 302 302 302 302 301 302 302 300 300 301 301 301 302 301 301 301 301 300 299
315 315 315 314 314 311 314 314 314 310 307 302 302 302 302 302 302 301 300 301 302 301 301 301 301 302 302 300 299 302 301 302 304 301 299 300 300 300 301 300 300 301 301 301 299
313 313 313 313 314 313 312 313 310 309 303 305 303 303 305 302 301 301 301 301 301 301 302 302 302 299 298 299 300 300 303 303 304 300 300 299 298 299 300 299 299 299 300 300 299
310 312 311 312 314 315 313 312 310 308 308 310 306 302 302 302 301 300 300 300 300 300 300 302 300 300 299 300 302 302 302 302 301 299 300 299 298 299 299 298 297 297 297 299 298
311 310 311 313 314 314 313 312 310 309 307 307 305 302 301 301 300 300 300 300 300 300 301 300 301 301 302 302 302 301 302 302 300 299 298 298 297 298 296 296 297 296 297 298 297
309 310 311 312 313 313 312 312 311 310 306 305 301 300 300 299 299 300 300 301 300 301 300 300 302 302 302 302 302 301 301 301 300 298 296 296 296 296 297 296 296 296 296 297 296
302 309 310 311 312 313 312 312 311 310 303 306 299 299 299 298 299 300 300 300 301 301 300 300 301 301 302 302 301 301 300 299 299 297 298 297 298 298 297 296 295 295 294 295 295
298 307 309 310 312 311 310 310 311 308 308 302 299 299 299 299 299 299 299 299 299 301 298 299 301 301 301 301 300 299 298 298 298 295 292 297 292 297 295 298 297 294 294 294 293
298 304 309 310 310 311 311 310 309 304 305 302 299 299 299 299 299 299 300 299 299 298 299 299 300 300 299 299 299 298 300 298 296 295 295 294 295 300 296 293 296 292 293 293 292
301 307 309 309 310 310 309 310 303 307 304 305 302 300 299 299 300 300 301 300 301 307 302 303 301 298 298 300 298 299 300 300 297 294 300 294 296 299 293 290 288 288 293 292 292
304 307 308 309 308 308 308 303 306 295 298 303 301 304 302 301 302 302 302 304 302 302 304 302 304 299 298 300 301 300 298 301 296 297 296 296 295 298 289 289 289 292 292 291 291
303 305 305 306 306 308 308 297 296 297 304 305 305 304 306 302 300 301 302 301 300 301 303 302 303 297 297 296 297 300 302 295 289 286 293 291 294 295 294 288 287 290 291 291 290
303 303 303 304 305 306 303 301 299 303 303 304 305 307 308 303 301 301 302 300 299 300 299 301 302 299 297 296 295 297 296 296 293 296 294 295 291 294 291 289 286 285 291 291 289
302 302 303 303 305 305 303 293 304 301 301 303 305 307 305 304 302 298 302 301 300 300 299 298 299 301 298 296 298 296 296 296 294 290 291 292 296 288 289 285 287 287 290 288 288
302 301 303 304 303 301 305 303 302 300 299 301 299 301 300 298 299 301 300 302 298 299 301 299 300 301 303 295 293 294 290 291 293 291 284 288 296 281 282 277 281 287 289 287 286
302 302 301 304 299 301 300 300 300 300 300 299 301 299 295 297 301 297 302 299 298 299 300 299 301 302 303 298 294 294 292 289 287 287 290 293 297 279 274 281 289 287 289 287 285
301 300 300 301 301 295 297 298 302 299 300 300 301 300 297 294 294 299 300 298 298 298 298 298 299 301 305 303 294 291 289 291 292 287 285 291 293 298 292 285 289 290 288 287 285
301 296 298 294 300 300 298 300 301 302 299 299 300 299 297 299 298 299 296 298 298 298 298 298 299 299 299 300 296 292 293 291 292 287 295 288 287 293 291 288 289 290 289 288 286
302 299 299 299 300 300 301 301 302 302 300 300 299 297 299 300 299 298 297 297 298 297 298 296 298 298 298 296 288 289 288 290 293 283 286 289 294 293 289 287 289 291 291 290 289
300 301 300 300 299 299 300 300 300 299 300 301 299 301 300 299 296 295 295 296 296 296 298 297 296 298 300 294 294 294 289 285 283 279 290 290 292 271 284 279 289 293 292 293 291
Wind_Speed
5 6 6 7 7 8 9 9 9 8 9 8 7 7 7 7 8 8 6 6 8 7 3 1 3 5 6 4 4 4 3 3 4 6 3 4 4 5 3 5 6 8 7 7 8
4 5 6 6 7 8 8 9 9 9 9 8 7 7 7 8 10 10 4 7 8 6 2 3 3 5 3 4 3 4 3 8 2 3 3 5 3 4 3 7 7 12 13 13 12
4 5 6 6 7 9 10 11 10 10 10 10 9 7 7 8 9 1 3 7 7 4 1 3 4 3 1 3 4 3 5 3 3 4 4 3 3 5 4 6 16 18 20 17 17
5 5 7 7 8 9 11 13 12 12 12 11 9 8 7 6 4 2 5 7 6 3 1 3 4 3 2 3 3 2 6 4 2 5 4 3 3 5 17 12 7 9 11 15 19
6 6 7 8 9 10 11 12 12 13 12 11 9 8 6 4 5 5 5 6 5 3 2 4 5 3 3 2 2 3 2 4 5 6 8 7 11 9 18 20 17 16 16 17 16
6 7 7 8 9 10 11 12 11 12 12 11 9 7 5 2 4 4 5 7 4 3 2 4 4 4 2 2 4 2 5 9 9 13 9 5 4 2 5 4 16 21 20 19 19
7 7 8 8 9 11 11 11 12 11 11 9 7 6 7 7 6 6 7 5 4 3 3 2 3 4 3 1 2 2 6 6 7 6 5 4 7 10 20 12 12 17 18 17 16
8 7 8 9 10 11 11 12 13 11 8 7 5 4 4 5 6 6 6 4 3 3 3 3 3 2 2 1 1 1 1 4 1 6 2 2 8 4 5 12 17 18 19 20 19
10 11 10 11 11 11 11 11 12 9 7 4 4 4 3 3 4 4 4 3 4 4 3 4 2 2 1 3 4 2 4 4 6 5 3 4 7 7 6 12 19 22 24 25 21
14 14 13 14 11 11 10 10 8 6 1 3 4 4 3 2 3 3 4 5 3 4 4 2 1 1 2 3 5 5 4 4 5 1 1 6 16 20 21 19 27 30 28 26 23
13 13 15 12 10 9 8 6 3 2 4 5 5 5 6 6 7 5 5 4 4 1 2 0 1 7 9 7 0 1 3 5 2 2 2 9 12 21 18 17 18 25 27 28 26
12 13 11 10 8 7 4 1 2 3 5 5 5 7 7 5 4 5 4 3 2 3 3 2 8 5 5 4 4 3 3 5 4 3 2 6 15 22 9 5 5 10 17 21 23
17 13 10 8 7 4 2 3 4 7 2 2 1 1 2 3 2 2 2 0 3 2 5 6 1 3 3 2 3 4 4 2 4 5 1 7 8 5 3 3 5 6 7 11 16
20 15 10 7 4 2 1 6 9 9 4 2 1 1 1 1 2 3 2 1 2 3 3 6 3 4 2 4 6 2 2 3 0 4 3 4 6 7 3 6 4 7 5 10 14
14 14 10 6 2 3 3 6 8 3 4 1 2 0 1 2 4 0 2 2 3 1 5 5 2 3 3 4 4 5 1 3 3 3 4 1 2 8 5 6 4 6 12 14 14
9 10 11 5 4 3 2 4 2 5 6 1 1 1 2 1 1 2 1 2 2 2 3 7 3 1 3 2 3 5 3 4 4 3 2 2 3 6 3 5 3 1 10 14 12
5 8 8 7 4 5 1 1 4 3 3 2 2 1 2 3 1 2 2 2 2 4 3 2 2 2 5 1 3 4 3 3 4 2 5 2 1 10 6 5 5 5 8 9 11
4 4 6 6 7 5 2 4 3 3 4 1 1 3 1 2 1 3 2 2 1 0 2 1 4 3 2 2 3 4 4 4 6 2 4 1 6 6 6 4 5 7 9 12 15
1 3 6 5 6 7 4 3 7 5 1 2 2 0 1 2 0 3 2 1 2 4 2 2 4 2 3 1 2 1 3 2 6 1 3 2 7 9 3 4 5 11 10 16 16
2 2 4 6 9 8 3 5 1 2 1 1 1 1 1 2 3 2 2 1 3 2 2 1 5 2 1 1 3 2 2 2 2 0 4 4 5 5 5 4 4 6 13 15 14
5 2 4 7 10 8 3 6 3 2 2 1 1 1 3 2 1 2 2 1 1 1 2 3 2 1 1 3 3 2 2 2 3 3 4 2 7 7 7 6 6 8 17 15 13
4 2 3 12 3 2 3 4 3 3 1 1 0 0 3 1 2 2 3 2 2 2 2 2 3 4 4 3 2 2 4 3 4 4 1 3 7 3 5 4 4 19 20 13 12
4 5 3 11 3 3 2 3 3 3 2 2 3 3 2 2 2 3 2 3 5 2 2 2 3 3 2 2 1 3 3 3 4 3 5 4 6 1 3 6 13 18 13 11 10
4 2 4 6 3 5 3 4 4 2 1 3 1 3 2 1 2 3 2 1 5 3 4 2 3 5 2 1 2 1 2 3 4 3 4 7 10 15 9 7 11 13 11 11 11
7 4 5 3 5 4 2 1 6 3 3 3 1 4 5 1 2 4 3 3 3 2 3 2 4 4 8 10 5 6 8 8 9 6 7 4 7 13 12 9 11 15 13 12 11
4 4 7 2 5 5 6 4 5 3 5 2 3 3 5 4 5 3 3 3 3 1 3 2 3 2 5 3 2 6 8 11 14 3 10 10 23 14 12 9 11 13 13 13 11
11 7 5 4 5 3 4 5 5 7 5 2 7 2 4 4 1 4 5 5 3 2 2 2 2 3 4 1 6 6 7 7 4 3 8 6 11 3 5 5 9 12 11 12 10
Wind_Direction
19 17 22 18 15 10 6 5 3 359 352 345 333 315 300 290 293 302 303 327 339 340 342 96 157 161 160 149 131 135 72 222 246 168 193 172 169 192 227 221 204 213 225 243 203
15 9 7 5 1 356 352 349 347 345 342 334 322 310 300 296 295 295 237 334 339 340 326 174 164 167 156 155 168 110 143 217 215 178 183 176 199 195 212 215 228 231 231 230 228
359 354 353 353 346 343 339 337 337 332 330 325 314 301 297 305 309 238 220 329 338 345 334 194 174 168 165 167 186 164 206 221 232 194 166 194 255 230 210 242 227 225 227 217 235
341 343 343 342 339 337 334 332 329 328 323 318 309 299 295 307 308 221 301 327 338 332 273 168 170 161 157 227 192 210 238 241 239 201 177 201 232 258 226 238 256 226 237 234 235
336 336 335 334 335 333 334 329 326 324 320 312 302 289 288 283 276 281 304 323 327 316 243 206 189 177 193 214 212 218 265 246 225 219 241 241 230 238 263 263 255 252 244 237 241
331 329 328 329 333 333 336 334 328 321 315 308 296 281 269 273 259 283 314 322 313 282 260 211 209 202 200 211 186 308 288 274 272 253 240 208 254 175 267 239 248 250 249 242 240
317 320 322 324 326 328 333 334 331 325 314 303 289 271 271 266 257 284 306 307 292 272 277 232 210 210 180 203 246 306 314 308 235 228 218 195 273 229 247 255 247 243 243 239 248
305 310 318 319 317 316 326 330 331 324 315 298 281 274 269 268 273 291 298 292 300 296 270 248 233 225 222 274 355 340 86 331 94 146 191 158 264 260 252 227 241 239 239 241 245
302 298 301 314 314 314 320 324 322 315 312 290 279 282 273 291 277 297 300 285 291 294 279 250 232 212 133 100 352 357 247 214 313 188 132 193 268 260 248 226 242 249 253 250 241
297 301 305 303 301 314 320 323 314 306 291 300 270 296 259 276 285 292 288 278 278 296 291 218 155 95 63 127 225 202 222 239 244 338 241 259 260 273 266 264 260 267 259 246 243
303 302 305 304 296 313 327 326 325 271 283 245 256 264 281 271 279 276 267 276 258 225 221 271 64 224 218 209 36 110 217 243 242 358 299 252 271 275 281 262 261 264 262 250 246
293 300 309 307 302 307 332 354 9 319 304 266 278 242 256 262 290 272 267 246 175 227 140 30 239 226 227 189 213 213 253 263 277 154 248 307 289 279 279 248 253 281 263 251 246
285 287 296 301 298 287 317 21 349 339 292 299 249 255 256 250 258 268 232 249 215 244 199 192 215 110 169 168 187 219 206 226 238 313 172 321 289 321 287 262 263 282 267 237 235
278 258 267 282 281 292 298 348 344 343 55 238 179 227 226 224 262 235 227 229 278 254 238 241 270 192 206 241 165 257 112 109 275 39 266 34 282 300 315 293 235 235 219 211 220
284 238 241 233 217 293 302 331 335 8 355 211 167 142 266 221 308 54 235 191 219 277 84 263 176 184 188 225 159 216 109 109 99 93 32 17 67 271 6 296 273 234 225 231 236
309 225 219 200 183 198 281 311 342 43 252 126 139 232 23 145 12 344 316 249 274 301 219 245 316 261 225 61 104 137 83 66 56 85 352 250 134 272 219 215 293 252 226 233 245
340 190 204 191 193 188 225 130 36 168 313 271 193 84 64 311 9 31 3 314 248 326 348 288 196 74 25 33 42 64 56 321 338 8 224 256 5 251 263 236 222 246 236 230 268
5 161 173 184 182 192 166 64 161 240 237 349 223 329 184 34 24 339 334 299 97 8 299 26 302 12 72 90 310 177 172 165 219 229 278 25 237 253 217 261 248 250 251 266 284
279 170 193 185 185 188 155 84 207 211 321 350 64 104 341 58 115 348 222 257 103 184 193 311 270 93 66 120 261 110 217 129 103 57 35 246 281 289 256 307 293 269 282 290 296
187 194 220 205 179 172 101 244 213 41 304 274 154 80 291 285 5 6 230 242 162 84 140 271 287 55 77 245 104 222 160 54 10 46 301 282 279 242 307 284 307 298 304 303 301
180 212 204 188 169 175 191 223 225 160 258 208 211 177 222 284 234 262 259 344 187 84 358 151 213 186 206 183 165 181 267 63 113 112 169 288 273 214 214 216 249 274 310 305 303
190 244 205 168 135 223 192 185 145 159 106 258 104 92 188 172 268 258 243 223 166 161 191 184 237 265 238 144 175 239 201 157 122 266 91 145 272 209 224 237 253 286 312 310 306
210 214 253 185 172 224 140 166 167 150 160 215 198 176 135 176 271 229 269 150 168 201 176 155 225 288 211 143 170 220 193 140 115 86 205 141 261 303 294 294 286 288 311 308 306
194 200 206 229 222 144 165 233 197 155 169 200 181 118 98 360 259 295 291 181 194 214 200 175 246 243 258 204 111 207 221 178 134 130 188 232 288 287 298 300 319 322 317 310 303
205 216 185 205 236 189 150 211 205 196 215 182 191 209 166 215 262 251 263 288 206 235 208 229 257 226 262 266 225 224 222 191 203 195 205 258 227 276 287 285 295 310 313 308 304
206 183 182 245 166 142 185 208 190 178 167 168 216 269 186 215 205 238 198 206 253 188 201 184 277 287 274 283 191 259 221 218 226 224 275 288 286 286 287 283 291 303 304 300 301
223 218 195 171 143 144 204 178 213 151 227 188 202 199 225 249 312 293 268 271 261 215 228 209 282 330 268 262 283 293 226 176 193 222 187 195 233 350 300 299 289 314 311 301 291